| time (UTC) | temp C | wind direction | speed KPH | gust KPH | rain 1hr cm | rain 24hr cm | rain mn cm | humidity % | barometer mb |
| 20260505024345 | 12 | 22 | 0.0 | 0.0 | 0.00 | 0.00 | 0.00 | 73 | 1009.7 |
| 20260505023842 | 12 | 43 | 0.0 | 0.0 | 0.00 | 0.00 | 0.00 | 73 | 1009.4 |
| 20260505023339 | 12 | 124 | 1.6 | 1.6 | 0.00 | 0.00 | 0.00 | 72 | 1009.5 |
| 20260505022836 | 12 | 70 | 1.6 | 1.6 | 0.00 | 0.00 | 0.00 | 72 | 1009.4 |
| 20260505022333 | 12 | 1 | 1.6 | 1.6 | 0.00 | 0.00 | 0.00 | 72 | 1009.6 |
| 20260505021830 | 12 | 120 | 1.6 | 1.6 | 0.00 | 0.00 | 0.00 | 70 | 1009.5 |
| 20260505021327 | 12 | 121 | 0.0 | 1.6 | 0.00 | 0.00 | 0.00 | 71 | 1009.6 |
| 20260505020822 | 12 | 233 | 6.4 | 8.0 | 0.00 | 0.00 | 0.00 | 70 | 1009.6 |
| 20260505020318 | 12 | 88 | 1.6 | 3.2 | 0.00 | 0.00 | 0.00 | 70 | 1009.7 |
| 20260505015815 | 12 | 42 | 1.6 | 1.6 | 0.00 | 0.00 | 0.00 | 69 | 1009.6 |
| 20260505015312 | 12 | 57 | 0.0 | 1.6 | 0.00 | 0.00 | 0.00 | 69 | 1009.5 |
| 20260505014810 | 12 | 27 | 0.0 | 0.0 | 0.00 | 0.00 | 0.00 | 69 | 1009.4 |
| 20260505014307 | 12 | 31 | 0.0 | 0.0 | 0.00 | 0.00 | 0.00 | 68 | 1009.6 |
| 20260505013803 | 12 | 53 | 0.0 | 0.0 | 0.00 | 0.00 | 0.00 | 68 | 1009.5 |
| 20260505013300 | 12 | 61 | 0.0 | 0.0 | 0.00 | 0.00 | 0.00 | 67 | 1009.5 |
| 20260505012759 | 12 | 9 | 1.6 | 1.6 | 0.00 | 0.00 | 0.00 | 67 | 1009.4 |
| 20260505012256 | 12 | 38 | 0.0 | 0.0 | 0.00 | 0.00 | 0.00 | 66 | 1009.3 |
| 20260505011751 | 13 | 30 | 0.0 | 0.0 | 0.00 | 0.00 | 0.00 | 65 | 1009.2 |
| 20260505011249 | 13 | 92 | 0.0 | 1.6 | 0.00 | 0.00 | 0.00 | 64 | 1009.1 |
| 20260505010744 | 13 | 25 | 0.0 | 0.0 | 0.00 | 0.00 | 0.00 | 65 | 1009.1 |
| 20260505010241 | 13 | 65 | 0.0 | 1.6 | 0.00 | 0.00 | 0.00 | 64 | 1009.0 |
| 20260505005737 | 13 | 215 | 3.2 | 3.2 | 0.00 | 0.00 | 0.00 | 63 | 1008.9 |
| 20260505005234 | 13 | 48 | 0.0 | 0.0 | 0.00 | 0.00 | 0.00 | 61 | 1008.9 |
| 20260505004732 | 13 | 82 | 1.6 | 3.2 | 0.00 | 0.00 | 0.00 | 61 | 1008.6 |
| 20260505004228 | 13 | 244 | 3.2 | 4.8 | 0.00 | 0.00 | 0.00 | 59 | 1008.5 |
| 20260505003725 | 13 | 108 | 1.6 | 3.2 | 0.00 | 0.00 | 0.00 | 60 | 1008.4 |
| 20260505003223 | 13 | 82 | 0.0 | 1.6 | 0.00 | 0.00 | 0.00 | 61 | 1008.2 |
| 20260505002719 | 13 | 70 | 1.6 | 1.6 | 0.00 | 0.00 | 0.00 | 60 | 1008.1 |
| 20260505002217 | 13 | 63 | 1.6 | 1.6 | 0.00 | 0.00 | 0.00 | 58 | 1008.0 |
| 20260505001714 | 14 | 49 | 1.6 | 1.6 | 0.00 | 0.00 | 0.00 | 57 | 1008.0 |
| 20260505001211 | 15 | 54 | 0.0 | 0.0 | 0.00 | 0.00 | 0.00 | 56 | 1007.8 |
| 20260505000708 | 15 | 356 | 0.0 | 1.6 | 0.00 | 0.00 | 0.00 | 53 | 1007.7 |
| 20260505000206 | 15 | 295 | 4.8 | 4.8 | 0.00 | 0.00 | 0.00 | 51 | 1007.7 |
| 20260504235702 | 15 | 85 | 1.6 | 1.6 | 0.00 | 0.00 | 0.00 | 51 | 1007.7 |
| 20260504235158 | 15 | 296 | 6.4 | 9.7 | 0.00 | 0.00 | 0.00 | 51 | 1007.7 |
| 20260504234656 | 15 | 66 | 1.6 | 1.6 | 0.00 | 0.00 | 0.00 | 51 | 1007.5 |
| 20260504234153 | 16 | 88 | 3.2 | 3.2 | 0.00 | 0.00 | 0.00 | 50 | 1007.1 |
| 20260504233649 | 16 | 22 | 0.0 | 0.0 | 0.00 | 0.00 | 0.00 | 51 | 1007.2 |
| 20260504233145 | 16 | 212 | 3.2 | 3.2 | 0.00 | 0.00 | 0.00 | 49 | 1007.1 |
| 20260504232643 | 16 | 260 | 9.7 | 12.9 | 0.00 | 0.00 | 0.00 | 49 | 1007.0 |
| 20260504232139 | 16 | 17 | 0.0 | 0.0 | 0.00 | 0.00 | 0.00 | 48 | 1007.1 |
| 20260504231636 | 16 | 19 | 3.2 | 4.8 | 0.00 | 0.00 | 0.00 | 47 | 1007.1 |
| 20260504231132 | 16 | 113 | 1.6 | 1.6 | 0.00 | 0.00 | 0.00 | 48 | 1007.1 |
| 20260504230629 | 17 | 82 | 1.6 | 1.6 | 0.00 | 0.00 | 0.00 | 47 | 1006.7 |
| 20260504230128 | 17 | 151 | 1.6 | 3.2 | 0.00 | 0.00 | 0.00 | 48 | 1006.7 |
| 20260504225626 | 17 | 263 | 11.3 | 17.7 | 0.00 | 0.00 | 0.00 | 47 | 1006.8 |
| 20260504225121 | 17 | 36 | 4.8 | 8.0 | 0.00 | 0.00 | 0.00 | 47 | 1006.7 |
| 20260504224618 | 17 | 272 | 8.0 | 9.7 | 0.00 | 0.00 | 0.00 | 46 | 1006.8 |
| 20260504224115 | 17 | 283 | 4.8 | 4.8 | 0.00 | 0.00 | 0.00 | 47 | 1006.6 |
| 20260504223612 | 18 | 281 | 4.8 | 8.0 | 0.00 | 0.00 | 0.00 | 45 | 1006.6 |
| 20260504223108 | 18 | 242 | 8.0 | 12.9 | 0.00 | 0.00 | 0.00 | 45 | 1006.4 |
| 20260504222605 | 18 | 278 | 4.8 | 8.0 | 0.00 | 0.00 | 0.00 | 43 | 1006.4 |
| 20260504222102 | 18 | 295 | 4.8 | 8.0 | 0.00 | 0.00 | 0.00 | 43 | 1006.4 |
| 20260504221559 | 18 | 243 | 1.6 | 3.2 | 0.00 | 0.00 | 0.00 | 44 | 1006.3 |
| 20260504221056 | 18 | 317 | 8.0 | 11.3 | 0.00 | 0.00 | 0.00 | 43 | 1006.5 |
| 20260504220552 | 18 | 16 | 4.8 | 4.8 | 0.00 | 0.00 | 0.00 | 43 | 1006.4 |
| 20260504220050 | 19 | 271 | 11.3 | 20.9 | 0.00 | 0.00 | 0.00 | 43 | 1006.5 |
| 20260504215546 | 19 | 291 | 6.4 | 9.7 | 0.00 | 0.00 | 0.00 | 43 | 1006.3 |
| 20260504215044 | 19 | 88 | 3.2 | 3.2 | 0.00 | 0.00 | 0.00 | 43 | 1006.4 |
| 20260504214539 | 19 | 253 | 8.0 | 12.9 | 0.00 | 0.00 | 0.00 | 43 | 1006.3 |
| 20260504214036 | 20 | 309 | 8.0 | 11.3 | 0.00 | 0.00 | 0.00 | 43 | 1006.2 |
| 20260504213532 | 20 | 105 | 4.8 | 4.8 | 0.00 | 0.00 | 0.00 | 42 | 1006.2 |
| 20260504213030 | 20 | 85 | 1.6 | 1.6 | 0.00 | 0.00 | 0.00 | 42 | 1006.1 |
| 20260504212525 | 20 | 30 | 1.6 | 3.2 | 0.00 | 0.00 | 0.00 | 41 | 1005.9 |
| 20260504212023 | 20 | 315 | 1.6 | 1.6 | 0.00 | 0.00 | 0.00 | 41 | 1006.1 |
| 20260504211520 | 20 | 283 | 4.8 | 8.0 | 0.00 | 0.00 | 0.00 | 41 | 1006.1 |
| 20260504211017 | 20 | 114 | 6.4 | 8.0 | 0.00 | 0.00 | 0.00 | 40 | 1006.1 |
| 20260504210514 | 20 | 318 | 6.4 | 9.7 | 0.00 | 0.00 | 0.00 | 39 | 1006.1 |
| 20260504210011 | 20 | 10 | 1.6 | 1.6 | 0.00 | 0.00 | 0.00 | 42 | 1006.2 |
| 20260504205508 | 20 | 82 | 6.4 | 9.7 | 0.00 | 0.00 | 0.00 | 39 | 1005.8 |
| 20260504205006 | 20 | 349 | 3.2 | 3.2 | 0.00 | 0.00 | 0.00 | 39 | 1005.9 |
| 20260504204504 | 21 | 294 | 8.0 | 11.3 | 0.00 | 0.00 | 0.00 | 37 | 1005.7 |
| 20260504204003 | 21 | 256 | 9.7 | 12.9 | 0.00 | 0.00 | 0.00 | 36 | 1005.9 |
| 20260504203500 | 21 | 255 | 8.0 | 12.9 | 0.00 | 0.00 | 0.00 | 35 | 1005.7 |
| 20260504202956 | 21 | 196 | 4.8 | 8.0 | 0.00 | 0.00 | 0.00 | 37 | 1005.8 |
| 20260504202453 | 21 | 232 | 9.7 | 11.3 | 0.00 | 0.00 | 0.00 | 33 | 1005.8 |
| 20260504201950 | 21 | 241 | 4.8 | 4.8 | 0.00 | 0.00 | 0.00 | 35 | 1005.8 |
| 20260504201447 | 21 | 231 | 8.0 | 11.3 | 0.00 | 0.00 | 0.00 | 33 | 1006.1 |
| 20260504200944 | 21 | 331 | 4.8 | 8.0 | 0.00 | 0.00 | 0.00 | 34 | 1005.8 |
| 20260504200441 | 21 | 357 | 3.2 | 4.8 | 0.00 | 0.00 | 0.00 | 34 | 1005.9 |
| 20260504195938 | 21 | 204 | 3.2 | 4.8 | 0.00 | 0.00 | 0.00 | 34 | 1005.8 |
| 20260504195433 | 21 | 43 | 4.8 | 8.0 | 0.00 | 0.00 | 0.00 | 35 | 1005.9 |
| 20260504194930 | 21 | 227 | 8.0 | 12.9 | 0.00 | 0.00 | 0.00 | 33 | 1005.9 |
| 20260504194426 | 22 | 26 | 6.4 | 8.0 | 0.00 | 0.00 | 0.00 | 33 | 1005.7 |
| 20260504193922 | 21 | 89 | 3.2 | 3.2 | 0.00 | 0.00 | 0.00 | 35 | 1006.1 |
| 20260504193420 | 21 | 339 | 1.6 | 3.2 | 0.00 | 0.00 | 0.00 | 32 | 1006.1 |
| 20260504192919 | 21 | 340 | 8.0 | 9.7 | 0.00 | 0.00 | 0.00 | 33 | 1005.8 |
| 20260504192415 | 21 | 282 | 3.2 | 3.2 | 0.00 | 0.00 | 0.00 | 34 | 1006.1 |
| 20260504191914 | 21 | 77 | 1.6 | 1.6 | 0.00 | 0.00 | 0.00 | 35 | 1005.7 |
| 20260504191412 | 21 | 230 | 6.4 | 8.0 | 0.00 | 0.00 | 0.00 | 32 | 1006.1 |
| 20260504190906 | 21 | 248 | 17.7 | 27.4 | 0.00 | 0.00 | 0.00 | 32 | 1005.9 |
| 20260504190403 | 21 | 299 | 8.0 | 11.3 | 0.00 | 0.00 | 0.00 | 35 | 1005.9 |
| 20260504185900 | 21 | 275 | 1.6 | 3.2 | 0.00 | 0.00 | 0.00 | 33 | 1006.2 |
| 20260504185357 | 21 | 284 | 4.8 | 11.3 | 0.00 | 0.00 | 0.00 | 33 | 1006.2 |
| 20260504184853 | 21 | 237 | 8.0 | 9.7 | 0.00 | 0.00 | 0.00 | 32 | 1006.2 |
| 20260504184348 | 21 | 294 | 6.4 | 11.3 | 0.00 | 0.00 | 0.00 | 32 | 1006.2 |
| 20260504183844 | 21 | 274 | 12.9 | 16.1 | 0.00 | 0.00 | 0.00 | 34 | 1006.4 |
| 20260504183342 | 21 | 338 | 11.3 | 17.7 | 0.00 | 0.00 | 0.00 | 32 | 1006.3 |
| 20260504182840 | 21 | 238 | 8.0 | 12.9 | 0.00 | 0.00 | 0.00 | 34 | 1006.5 |
| 20260504182337 | 21 | 309 | 1.6 | 1.6 | 0.00 | 0.00 | 0.00 | 35 | 1006.5 |
| 20260504181834 | 21 | 123 | 4.8 | 4.8 | 0.00 | 0.00 | 0.00 | 35 | 1006.7 |
| 20260504181331 | 20 | 278 | 12.9 | 20.9 | 0.00 | 0.00 | 0.00 | 33 | 1006.7 |
| 20260504180830 | 21 | 39 | 9.7 | 12.9 | 0.00 | 0.00 | 0.00 | 33 | 1006.8 |
| 20260504180328 | 21 | 12 | 4.8 | 8.0 | 0.00 | 0.00 | 0.00 | 33 | 1006.7 |
| 20260504175826 | 20 | 308 | 14.5 | 20.9 | 0.00 | 0.00 | 0.00 | 32 | 1006.8 |
| 20260504175322 | 20 | 268 | 6.4 | 12.9 | 0.00 | 0.00 | 0.00 | 33 | 1006.9 |
| 20260504174821 | 20 | 202 | 17.7 | 29.0 | 0.00 | 0.00 | 0.00 | 32 | 1007.0 |
| 20260504174318 | 20 | 215 | 4.8 | 9.7 | 0.00 | 0.00 | 0.00 | 32 | 1006.8 |
| 20260504173814 | 20 | 277 | 8.0 | 11.3 | 0.00 | 0.00 | 0.00 | 32 | 1006.6 |
| 20260504173311 | 20 | 213 | 3.2 | 8.0 | 0.00 | 0.00 | 0.00 | 32 | 1006.6 |
| 20260504172809 | 20 | 314 | 6.4 | 9.7 | 0.00 | 0.00 | 0.00 | 32 | 1006.6 |
| 20260504172305 | 20 | 283 | 4.8 | 9.7 | 0.00 | 0.00 | 0.00 | 33 | 1006.9 |
| 20260504171801 | 20 | 108 | 8.0 | 14.5 | 0.00 | 0.00 | 0.00 | 33 | 1006.7 |
| 20260504171258 | 20 | 308 | 6.4 | 9.7 | 0.00 | 0.00 | 0.00 | 33 | 1006.8 |
| 20260504170755 | 20 | 282 | 12.9 | 16.1 | 0.00 | 0.00 | 0.00 | 32 | 1006.8 |
| 20260504170252 | 20 | 120 | 4.8 | 8.0 | 0.00 | 0.00 | 0.00 | 34 | 1006.6 |
| 20260504160210 | 20 | 300 | 4.8 | 4.8 | 0.00 | 0.00 | 0.00 | 33 | 1008.0 |
| 20260504151138 | 18 | 339 | 11.3 | 14.5 | 0.00 | 0.00 | 0.00 | 36 | 1008.3 |
| 20260504150636 | 18 | 254 | 16.1 | 20.9 | 0.00 | 0.00 | 0.00 | 36 | 1008.3 |
| 20260504150132 | 18 | 317 | 6.4 | 8.0 | 0.00 | 0.00 | 0.00 | 36 | 1008.3 |
| 20260504141101 | 17 | 297 | 8.0 | 12.9 | 0.00 | 0.00 | 0.00 | 41 | 1009.0 |
| 20260504140558 | 17 | 357 | 1.6 | 1.6 | 0.00 | 0.00 | 0.00 | 39 | 1009.0 |
| 20260504130522 | 15 | 19 | 3.2 | 3.2 | 0.00 | 0.00 | 0.00 | 44 | 1009.4 |
| 20260504110409 | 4 | 257 | 3.2 | 3.2 | 0.00 | 0.00 | 0.00 | 87 | 1009.8 |
| 20260504100326 | 1 | 8 | 0.0 | 0.0 | 0.00 | 0.00 | 0.00 | 93 | 1009.7 |
| 20260504081720 | 5 | 358 | 0.0 | 0.0 | 0.00 | 0.00 | 0.00 | 84 | 1009.2 |
| 20260504081216 | 5 | 354 | 0.0 | 0.0 | 0.00 | 0.00 | 0.00 | 84 | 1009.3 |
| 20260504080713 | 5 | 353 | 0.0 | 0.0 | 0.00 | 0.00 | 0.00 | 84 | 1009.3 |
| 20260504080209 | 5 | 5 | 0.0 | 0.0 | 0.00 | 0.00 | 0.00 | 84 | 1009.2 |
| 20260504070137 | 5 | 1 | 0.0 | 0.0 | 0.00 | 0.00 | 0.00 | 82 | 1009.1 |
| 20260504050526 | 3 | 320 | 0.0 | 0.0 | 0.00 | 0.00 | 0.00 | 84 | 1009.2 |
| 20260504050023 | 3 | 359 | 0.0 | 0.0 | 0.00 | 0.00 | 0.00 | 85 | 1009.2 |
| 20260504045519 | 2 | 343 | 0.0 | 0.0 | 0.00 | 0.00 | 0.00 | 84 | 1009.2 |
| 20260504045015 | 2 | 343 | 0.0 | 0.0 | 0.00 | 0.00 | 0.00 | 84 | 1009.2 |
| 20260504044512 | 2 | 316 | 0.0 | 0.0 | 0.00 | 0.00 | 0.00 | 85 | 1009.3 |
| 20260504044009 | 2 | 1 | 0.0 | 0.0 | 0.00 | 0.00 | 0.00 | 86 | 1009.3 |
| 20260504043506 | 2 | 355 | 0.0 | 0.0 | 0.00 | 0.00 | 0.00 | 87 | 1009.3 |
| 20260504043004 | 2 | 305 | 0.0 | 0.0 | 0.00 | 0.00 | 0.00 | 87 | 1009.2 |
| 20260504042500 | 2 | 339 | 0.0 | 0.0 | 0.00 | 0.00 | 0.00 | 86 | 1009.3 |
| 20260504041957 | 2 | 359 | 0.0 | 0.0 | 0.00 | 0.00 | 0.00 | 86 | 1009.3 |
| 20260504041453 | 2 | 354 | 0.0 | 0.0 | 0.00 | 0.00 | 0.00 | 85 | 1009.2 |
| 20260504040949 | 2 | 9 | 0.0 | 0.0 | 0.00 | 0.00 | 0.00 | 84 | 1009.3 |
| 20260504040447 | 2 | 26 | 0.0 | 0.0 | 0.00 | 0.00 | 0.00 | 84 | 1009.1 |
| 20260504035943 | 2 | 345 | 0.0 | 0.0 | 0.00 | 0.00 | 0.00 | 84 | 1009.1 |
| 20260504035441 | 2 | 335 | 0.0 | 0.0 | 0.00 | 0.00 | 0.00 | 84 | 1009.0 |
| 20260504034937 | 2 | 351 | 0.0 | 0.0 | 0.00 | 0.00 | 0.00 | 84 | 1008.9 |
| 20260504034435 | 2 | 1 | 0.0 | 0.0 | 0.00 | 0.00 | 0.00 | 82 | 1008.8 |
| 20260504033931 | 2 | 349 | 0.0 | 0.0 | 0.00 | 0.00 | 0.00 | 81 | 1008.8 |
| 20260504033429 | 2 | 19 | 0.0 | 0.0 | 0.00 | 0.00 | 0.00 | 81 | 1008.8 |
| 20260504032926 | 2 | 344 | 0.0 | 0.0 | 0.00 | 0.00 | 0.00 | 80 | 1008.9 |
| 20260504032423 | 2 | 323 | 0.0 | 0.0 | 0.00 | 0.00 | 0.00 | 82 | 1008.9 |
| 20260504031920 | 1 | 33 | 0.0 | 0.0 | 0.00 | 0.00 | 0.00 | 86 | 1008.8 |
| 20260504031417 | 1 | 316 | 0.0 | 0.0 | 0.00 | 0.00 | 0.00 | 89 | 1008.8 |
| 20260504030913 | 1 | 5 | 0.0 | 0.0 | 0.00 | 0.00 | 0.00 | 91 | 1008.7 |
| 20260504030410 | 0 | 350 | 0.0 | 0.0 | 0.00 | 0.00 | 0.00 | 91 | 1008.5 |
| 20260504025906 | 0 | 16 | 0.0 | 0.0 | 0.00 | 0.00 | 0.00 | 90 | 1008.7 |
| 20260504025403 | 0 | 12 | 0.0 | 0.0 | 0.00 | 0.00 | 0.00 | 89 | 1008.7 |
| 20260504024900 | 0 | 6 | 0.0 | 0.0 | 0.00 | 0.00 | 0.00 | 89 | 1008.6 |